DW6120 Weather Reports


Display with metric or nautical units.
time (UTC)temp
F
wind
direction
speed
MPH
gust
MPH
rain 1hr
in
rain 24hr
in
rain mn
in
humidity
%
barometer
mb
20260506040040 48 188 1.0 7.0 0.00 0.06 0.06 66 1007.1
20260506034539 47 94 3.0 6.0 0.00 0.06 0.06 66 1006.6
20260506033037 48 87 6.0 8.0 0.00 0.06 0.06 65 1006.7
20260506030035 48 77 3.0 5.0 0.00 0.06 0.06 68 1006.3
20260506024537 49 88 4.0 7.0 0.00 0.06 0.06 67 1006.0
20260506023034 52 87 4.0 6.0 0.00 0.06 0.06 61 1005.7
20260506020032 56 223 1.0 5.0 0.00 0.06 0.06 54 1005.5
20260506014532 57 223 0.0 7.0 0.00 0.06 0.06 52 1005.6
20260506013034 58 225 3.0 6.0 0.00 0.06 0.06 51 1005.4
20260506010034 59 228 2.0 7.0 0.00 0.06 0.06 50 1005.3
20260506004542 60 225 3.0 6.0 0.00 0.06 0.06 50 1005.3
20260506003032 60 236 2.0 7.0 0.00 0.06 0.06 51 1005.4
20260506000026 57 228 4.0 7.0 0.00 0.06 0.06 54 1005.5
20260505234529 57 298 4.0 8.0 0.00 0.06 0.06 54 1005.5
20260505233031 55 196 2.0 5.0 0.00 0.06 0.06 57 1005.6
20260505230031 53 286 3.0 6.0 0.00 0.06 0.06 57 1005.7
20260505224528 53 325 3.0 5.0 0.00 0.06 0.06 57 1005.8
20260505223027 52 313 2.0 8.0 0.00 0.06 0.06 62 1006.0
20260505220043 51 336 3.0 8.0 0.00 0.06 0.06 69 1006.6
20260505214528 50 312 6.0 10.0 0.00 0.06 0.06 68 1006.5
20260505213023 51 344 1.0 5.0 0.00 0.06 0.06 66 1006.5
20260505210019 52 341 3.0 6.0 0.00 0.06 0.06 58 1006.3
20260505204520 52 280 1.0 4.0 0.00 0.06 0.06 56 1006.3
20260505203018 52 280 3.0 6.0 0.01 0.06 0.06 53 1006.1
20260505200016 53 346 3.0 7.0 0.01 0.06 0.06 53 1006.1
20260505194521 52 13 2.0 4.0 0.01 0.06 0.06 56 1005.9
20260505193025 51 268 2.0 6.0 0.00 0.05 0.05 55 1006.0
20260505190017 51 297 3.0 8.0 0.00 0.05 0.05 54 1006.0
20260505184515 52 247 2.0 4.0 0.00 0.05 0.05 52 1005.8
20260505183018 52 276 3.0 7.0 0.00 0.05 0.05 54 1005.7
20260505180013 52 178 1.0 4.0 0.00 0.05 0.05 55 1005.5
20260505174513 51 218 4.0 8.0 0.00 0.05 0.05 55 1005.5
20260505173012 51 194 6.0 12.0 0.00 0.05 0.05 55 1005.4
20260505170009 51 234 5.0 10.0 0.00 0.05 0.05 58 1005.2
20260505164508 51 17 0.0 2.0 0.00 0.05 0.05 66 1005.3
20260505163009 50 17 2.0 5.0 0.00 0.05 0.05 67 1005.1
20260505153007 48 310 1.0 5.0 0.00 0.05 0.05 72 1004.4
20260505124555 48 155 5.0 12.0 0.01 0.01 0.01 69 1003.7
20260505123054 52 74 2.0 13.0 0.00 0.00 0.00 56 1003.1
20260505121646 53 142 7.0 15.0 0.00 0.00 0.00 52 1003.0
20260505120100 53 152 10.0 18.0 0.00 0.00 0.00 51 1002.8
20260505114544 53 63 5.0 16.0 0.00 0.00 0.00 55 1002.7
20260505113058 53 184 4.0 12.0 0.00 0.00 0.00 56 1003.0
20260505111644 53 93 1.0 6.0 0.00 0.00 0.00 56 1002.7
20260505101639 54 268 1.0 6.0 0.00 0.00 0.00 56 1002.6
20260505100039 54 123 5.0 13.0 0.00 0.00 0.00 54 1002.5
20260505094537 51 144 3.0 8.0 0.00 0.00 0.00 65 1002.8
20260505093036 52 254 0.0 3.0 0.00 0.00 0.00 66 1002.7
20260505091636 51 335 1.0 4.0 0.00 0.00 0.00 66 1002.8
20260505090039 52 10 1.0 4.0 0.00 0.00 0.00 66 1002.9
20260505084545 52 168 2.0 4.0 0.00 0.00 0.00 65 1003.0
20260505083044 52 168 1.0 4.0 0.00 0.00 0.00 64 1003.0
20260505081633 53 242 0.0 3.0 0.00 0.00 0.00 63 1002.9
20260505080028 53 242 0.0 3.0 0.00 0.00 0.00 61 1002.8
20260505074525 54 296 1.0 10.0 0.00 0.00 0.00 58 1002.7
20260505073022 56 121 16.0 25.0 0.00 0.00 0.00 52 1002.3
20260505071621 56 114 2.0 17.0 0.00 0.00 0.00 54 1002.5
20260505070033 55 199 6.0 16.0 0.00 0.00 0.00 54 1002.3
20260505064523 56 198 6.0 32.0 0.00 0.00 0.00 54 1002.3
20260505063028 56 112 6.0 24.0 0.00 0.00 0.00 54 1002.4
20260505061621 57 94 1.0 27.0 0.00 0.00 0.00 52 1002.3
20260505060010 56 134 9.0 19.0 0.00 0.00 0.00 53 1002.2
20260505054510 56 144 8.0 21.0 0.00 0.00 0.00 55 1002.4
20260505053008 55 94 19.0 41.0 0.00 0.00 0.00 59 1002.3
20260505051607 54 140 19.0 40.0 0.00 0.00 0.00 60 1002.1
20260505041606 57 134 24.0 34.0 0.00 0.00 0.00 53 1001.7